Simultaneous Nadir Overpasses (SNOs) Predictions

Prediction of SNOs between GOES-14 and AQUA Satellite Orbit:

Table of predicted SNOs for the next 14.0 days since TLE Epoch: 1/4/2019
Index Date Time (GOES-14) GOES-14 Lat,Lon AQUA Lat,Lon Distance(km) Time Diff (sec)
1 01/05/2019 20:20:33 0.02,-104.06 0.67,-101.00 347.92 80
2 01/06/2019 08:41:49 -0.03,-104.29 0.40,-106.16 213.20 80
3 01/08/2019 08:26:58 -0.02,-104.30 -0.24,-103.21 123.52 80
4 01/08/2019 20:48:22 0.03,-104.06 -0.89,-108.40 492.68 80
5 01/10/2019 08:14:47 -0.02,-104.30 -0.88,-100.25 460.35 80
6 01/10/2019 20:36:11 0.03,-104.07 -0.25,-105.44 155.68 80
7 01/12/2019 20:26:40 0.03,-104.07 0.39,-102.48 181.45 80
8 01/13/2019 08:47:56 -0.03,-104.32 0.67,-107.65 378.45 80
9 01/15/2019 08:35:45 -0.03,-104.32 0.02,-104.69 41.49 80
10 01/17/2019 08:20:53 -0.02,-104.33 -0.56,-101.73 295.42 80
11 01/17/2019 20:42:17 0.03,-104.08 -0.57,-106.91 321.55 80




NCC Satellite Simultaneous Nadir Overpasses (SNOs) Prediction Service
